Location: Gwatt
(46.7204°N, 7.6223°E)
Time: 02:39:17
(UTC+00:00)

Courier 1B Rocket - Pass Details

Date: 26 January 2021
Orbit: 920 x 1202 km, 28.3° (Epoch: 05 March)

Event Time Altitude Azimuth Distance (km) Brightness Sun altitude
Rises 07:26:28 0° 236° (WSW) 3,727 7.8 3.1°
Reaches altitude 10° 07:30:11 10° 217° (SW) 2,833 7.4 3.6°
Maximum altitude 07:34:15 16° 180° (S) 2,446 7.6 4.2°
Drops below altitude 10° 07:38:29 10° 144° (SE) 2,959 9.1 4.8°
Sets 07:42:30 0° 125° (SE) 3,973 11.3 5.4°
